格洛纳斯K-15L COSMOS 2547 [GLONASS-K]

导读 | 豆包AI

COSMOS 2547(GLONASS)是独联体(CIS)发射的GLONASS导航系统卫星,于2020年10月25日发射入轨。GLONASS是俄罗斯/独联体主导的全球卫星导航系统,由24颗卫星组网,轨道高度约1.91万公里,开放给军民两用,不加密开放政策。作为系统卫星,它承担全球导航定位服务,支持陆地、海洋等场景的位置服务,助力提升GLONASS系统的服务稳定性与覆盖精度,延续了GLONASS系统持续更新组网的发展进程,保障系统持续提供全天候全球导航能力。

Basic Information
目录编号:
46805
目录名称:
COSMOS 2547 (GLONASS)
国际标识:
2020-075A
轨道中心:
EARTH
卫星名称:
格洛纳斯K-15L
卫星全名:
格洛纳斯K-15L COSMOS 2547 [GLONASS-K]
卫星状态:
在轨 (已飞行2013 天)
发射日期:
2020-10-25 UTC
国别 :
俄罗斯(独联体) (CIS)
星等 :
--
Orbit Information
数据来源 国际轨道数据 AOE轨道数据
星历时间 2026-04-29T00:07:42+0800
1天前
查看轨道信息
2026-04-28T13:00:00+0800
2天前
查看轨道信息
半长轴 25508.169km 25508.161km
偏心率 0.0008355 0.0008457
轨道倾角 64.597° 64.597°
近地点辐角 236.640° 237.046°
升交点赤经 194.127° 194.143°
平近点角 123.337° 127.217°
近地点 19108.719km 19108.451km
远地点 19151.345km 19151.597km
周期 675.738分钟 675.738分钟
每日圈数 2.131002 2.131003
Detailed Information
平衡模式:
三轴稳定
覆盖范围:
全球
运营商:
列舍特涅夫卫星信息系统
运营商所在国:
俄罗斯
制造商(研发单位):
列舍特涅夫卫星信息系统
制造商所在国:
俄罗斯
使用方式:
暂无
Satellite Introduction
格洛纳斯(GLONASS )是苏联/俄罗斯研制卫星导航系统。标准配置为24颗卫星,其中18颗卫星就能保证该系统为俄罗斯境内用户提供全部服务。该卫星仍在工作。
2D Orbit Map
3D Orbit Map
Orbit Altitude Analysis Chart
Orbit Inclination Analysis Chart
Orbit Comprehensive Analysis Chart
View Comprehensive Chart